TimeCDT,TemperatureF,Dew PointF,Humidity,Sea Level PressureIn,VisibilityMPH,Wind Direction,Wind SpeedMPH,Gust SpeedMPH,PrecipitationIn,Events,Conditions,WindDirDegrees,DateUTC
12:13 AM,31.5,27.5,85,30.02,10.0,WNW,15.0,20.7,N/A,,Overcast,290,2013-04-25 05:13:00
12:33 AM,31.1,27.3,86,30.03,10.0,WNW,11.5,18.4,N/A,,Overcast,290,2013-04-25 05:33:00
12:53 AM,30.9,26.6,84,30.03,10.0,WNW,11.5,-,N/A,,Overcast,290,2013-04-25 05:53:00
1:13 AM,30.9,26.6,84,30.04,10.0,WNW,12.7,18.4,N/A,,Overcast,290,2013-04-25 06:13:00
1:33 AM,30.6,26.4,85,30.04,10.0,West,13.8,17.3,N/A,,Overcast,280,2013-04-25 06:33:00
1:53 AM,30.6,26.4,85,30.05,10.0,WNW,12.7,18.4,N/A,,Overcast,290,2013-04-25 06:53:00
2:13 AM,30.4,26.6,86,30.05,10.0,WNW,12.7,-,N/A,,Overcast,290,2013-04-25 07:13:00
2:33 AM,30.2,26.6,86,30.06,10.0,WNW,10.4,18.4,N/A,,Overcast,290,2013-04-25 07:33:00
2:53 AM,30.2,26.4,86,30.06,10.0,WNW,9.2,-,N/A,,Overcast,290,2013-04-25 07:53:00
3:13 AM,30.2,26.6,86,30.06,10.0,WNW,11.5,-,N/A,,Overcast,290,2013-04-25 08:13:00
3:33 AM,30.2,26.2,85,30.06,10.0,WNW,6.9,-,N/A,,Overcast,290,2013-04-25 08:33:00
3:53 AM,30.2,26.2,85,30.07,10.0,NW,9.2,-,N/A,,Overcast,310,2013-04-25 08:53:00
4:13 AM,30.2,26.2,85,30.07,10.0,WNW,9.2,-,N/A,,Overcast,300,2013-04-25 09:13:00
4:33 AM,30.2,26.1,85,30.08,10.0,WNW,8.1,16.1,N/A,,Overcast,300,2013-04-25 09:33:00
4:53 AM,30.0,26.1,85,30.09,10.0,WNW,9.2,-,N/A,,Overcast,300,2013-04-25 09:53:00
5:13 AM,29.5,25.7,86,30.10,10.0,West,8.1,-,N/A,,Overcast,280,2013-04-25 10:13:00
5:33 AM,28.4,25.3,88,30.09,10.0,West,6.9,-,N/A,,Scattered Clouds,270,2013-04-25 10:33:00
5:53 AM,27.3,24.8,90,30.10,10.0,WSW,5.8,-,N/A,,Clear,250,2013-04-25 10:53:00
6:13 AM,26.4,24.3,92,30.11,10.0,West,5.8,-,N/A,,Scattered Clouds,270,2013-04-25 11:13:00
6:33 AM,26.8,24.6,92,30.11,10.0,West,4.6,-,N/A,,Mostly Cloudy,270,2013-04-25 11:33:00
6:53 AM,27.7,25.7,92,30.13,10.0,West,5.8,-,N/A,,Overcast,260,2013-04-25 11:53:00
7:13 AM,28.4,25.7,90,30.14,10.0,West,8.1,-,N/A,,Overcast,280,2013-04-25 12:13:00
7:33 AM,28.4,25.5,89,30.15,10.0,West,9.2,-,N/A,,Overcast,270,2013-04-25 12:33:00
7:53 AM,28.4,25.7,90,30.16,10.0,West,10.4,-,N/A,,Overcast,260,2013-04-25 12:53:00
8:13 AM,28.4,25.7,90,30.16,10.0,WSW,8.1,-,N/A,,Overcast,240,2013-04-25 13:13:00
8:33 AM,28.8,25.7,88,30.16,10.0,WSW,5.8,-,N/A,,Overcast,250,2013-04-25 13:33:00
8:53 AM,29.5,25.9,86,30.17,10.0,West,5.8,-,N/A,,Scattered Clouds,260,2013-04-25 13:53:00
9:13 AM,30.7,26.8,85,30.18,10.0,WSW,5.8,-,N/A,,Scattered Clouds,250,2013-04-25 14:13:00
9:33 AM,31.6,27.3,84,30.18,10.0,West,5.8,-,N/A,,Scattered Clouds,260,2013-04-25 14:33:00
9:53 AM,32.2,28.2,85,30.18,10.0,WSW,6.9,-,N/A,,Mostly Cloudy,250,2013-04-25 14:53:00
10:13 AM,32.2,27.9,84,30.18,10.0,WSW,6.9,-,N/A,,Mostly Cloudy,250,2013-04-25 15:13:00
10:33 AM,33.8,28.6,81,30.18,10.0,SW,9.2,-,N/A,,Overcast,230,2013-04-25 15:33:00
10:53 AM,34.3,28.4,79,30.18,10.0,WSW,6.9,-,N/A,,Mostly Cloudy,240,2013-04-25 15:53:00
11:13 AM,35.4,28.8,77,30.18,10.0,WSW,6.9,-,N/A,,Scattered Clouds,240,2013-04-25 16:13:00
11:33 AM,36.0,27.9,72,30.18,10.0,SW,4.6,-,N/A,,Scattered Clouds,230,2013-04-25 16:33:00
11:53 AM,37.0,28.4,71,30.18,10.0,SSW,5.8,-,N/A,,Scattered Clouds,200,2013-04-25 16:53:00
12:13 PM,37.9,27.3,66,30.17,10.0,SW,5.8,-,N/A,,Scattered Clouds,230,2013-04-25 17:13:00
12:33 PM,38.8,28.2,66,30.16,10.0,SE,4.6,-,N/A,,Clear,140,2013-04-25 17:33:00
12:53 PM,39.4,27.5,62,30.16,10.0,SSW,3.5,-,N/A,,Clear,200,2013-04-25 17:53:00
1:13 PM,40.1,27.1,60,30.15,10.0,SSW,5.8,-,N/A,,Clear,210,2013-04-25 18:13:00
1:33 PM,40.5,25.5,55,30.15,10.0,South,3.5,-,N/A,,Clear,180,2013-04-25 18:33:00
1:53 PM,41.5,24.4,51,30.15,10.0,SW,5.8,-,N/A,,Clear,230,2013-04-25 18:53:00
2:13 PM,42.1,24.3,49,30.14,10.0,South,5.8,-,N/A,,Clear,170,2013-04-25 19:13:00
2:33 PM,43.5,23.4,45,30.13,10.0,WSW,4.6,-,N/A,,Clear,240,2013-04-25 19:33:00
2:53 PM,44.6,22.1,41,30.13,10.0,WSW,8.1,-,N/A,,Clear,250,2013-04-25 19:53:00
3:13 PM,45.5,24.4,44,30.13,10.0,South,4.6,-,N/A,,Clear,190,2013-04-25 20:13:00
3:32 PM,46.0,27.9,49,30.12,10.0,SW,4.6,9.2,N/A,,Clear,230,2013-04-25 20:32:00
3:53 PM,46.4,28.6,50,30.11,10.0,SW,9.2,-,N/A,,Clear,220,2013-04-25 20:53:00
4:13 PM,47.7,28.8,48,30.11,10.0,South,6.9,-,N/A,,Clear,190,2013-04-25 21:13:00
4:33 PM,46.9,27.3,46,30.10,10.0,SE,10.4,-,N/A,,Clear,130,2013-04-25 21:33:00
4:53 PM,48.4,29.8,49,30.10,10.0,SSW,9.2,-,N/A,,Clear,200,2013-04-25 21:53:00
5:13 PM,48.9,30.6,49,30.09,10.0,South,9.2,-,N/A,,Clear,170,2013-04-25 22:13:00
5:33 PM,48.7,29.5,47,30.08,10.0,SSE,8.1,-,N/A,,Mostly Cloudy,160,2013-04-25 22:33:00
5:53 PM,48.7,29.5,47,30.08,10.0,SE,9.2,-,N/A,,Mostly Cloudy,140,2013-04-25 22:53:00
6:13 PM,48.7,29.1,47,30.07,10.0,SE,8.1,-,N/A,,Scattered Clouds,140,2013-04-25 23:13:00
6:33 PM,48.6,29.5,48,30.08,10.0,SSE,9.2,-,N/A,,Clear,150,2013-04-25 23:33:00
6:53 PM,48.2,30.0,49,30.07,10.0,SE,8.1,-,N/A,,Clear,140,2013-04-25 23:53:00
7:13 PM,47.7,30.6,52,30.07,10.0,SE,9.2,-,N/A,,Clear,140,2013-04-26 00:13:00
7:33 PM,46.9,30.2,52,30.06,10.0,SE,9.2,-,N/A,,Scattered Clouds,140,2013-04-26 00:33:00
7:53 PM,46.6,31.1,55,30.06,10.0,ESE,6.9,-,N/A,,Clear,120,2013-04-26 00:53:00
8:13 PM,46.4,31.6,56,30.06,10.0,ESE,9.2,-,N/A,,Clear,120,2013-04-26 01:13:00
8:33 PM,46.0,31.5,57,30.05,10.0,ESE,9.2,-,N/A,,Clear,120,2013-04-26 01:33:00
8:53 PM,45.7,31.1,57,30.04,10.0,ESE,9.2,-,N/A,,Clear,120,2013-04-26 01:53:00
9:13 PM,45.5,31.1,57,30.04,10.0,ESE,10.4,-,N/A,,Scattered Clouds,110,2013-04-26 02:13:00
9:33 PM,45.3,31.3,58,30.04,10.0,ESE,10.4,-,N/A,,Scattered Clouds,110,2013-04-26 02:33:00
9:53 PM,44.6,31.5,60,30.04,10.0,ESE,9.2,16.1,N/A,,Clear,110,2013-04-26 02:53:00
10:13 PM,44.6,31.1,59,30.04,10.0,ESE,10.4,-,N/A,,Clear,110,2013-04-26 03:13:00
10:33 PM,44.2,31.1,60,30.03,10.0,ESE,12.7,18.4,N/A,,Clear,110,2013-04-26 03:33:00
10:53 PM,44.1,30.9,60,30.03,10.0,ESE,13.8,-,N/A,,Clear,120,2013-04-26 03:53:00
11:13 PM,44.1,30.7,59,30.03,10.0,ESE,10.4,-,N/A,,Mostly Cloudy,120,2013-04-26 04:13:00
11:33 PM,44.1,30.6,59,30.02,10.0,ESE,10.4,-,N/A,,Overcast,110,2013-04-26 04:33:00
11:53 PM,43.9,30.6,59,30.00,10.0,East,11.5,-,N/A,,Mostly Cloudy,100,2013-04-26 04:53:00